Regional Weather Roundup
Issued by NWS

Home | Current Version | Previous Version | Graphics & Text | Print | Product List | Glossary On
Versions: 1 2 3 4 5 6 7 8 9 10 11 12 13 14 15 16 17 18 19 20 21 22 23 24 25 26 27 28 29 30 31 32 33 34 35 36 37 38 39 40 41 42 43 44 45 46 47 48 49 50
000
ASUS45 KABQ 311401
RWRNM
WEATHER ROUNDUP FOR NEW MEXICO
NATIONAL WEATHER SERVICE ALBUQUERQUE NM
700 AM MST SAT JAN 31 2015

NOTE: "FAIR" MEANS FEW OR NO CLOUDS BELOW 12,000 FEET AGL WITH NO
       SIGNIFICANT WEATHER OR OBSTRUCTIONS TO VISION.

      THIS PRODUCT IS RELEASED AS TWO VERSIONS.  ONE VERSION NEAR
      THE TOP OF THE HOUR CONTAINING PRELIMINARY DATA FROM ALBUQUERQUE
      AND OTHER STATIONS.  A FINAL VERSION WITH ADDITIONAL DATA IS
      ISSUED ABOUT 10 MINUTES AFTER THE HOUR.

NMZ501-503-504-510>518-311500-
NORTHWEST PLATEAU/NORTHCENTRAL MOUNTAINS

CITY           SKY/WX    TMP DP  RH WIND       PRES   REMARKS
FARMINGTON     LGT RAIN  33  32  96 SE3       29.89R FOG
SANTA FE       LGT SNOW  29  27  92 SE5       29.92F FOG     WCI  24
TAOS           CLOUDY    28  25  86 CALM      29.94R

$$
NMZ402-403-502-505>509-311500-
WESTCENTRAL MOUNTAINS/SOUTHWEST MOUNTAINS

CITY           SKY/WX    TMP DP  RH WIND       PRES   REMARKS
GALLUP         CLOUDY    33  31  92 CALM      29.89F
SILVER CITY    CLOUDY    39  39 100 CALM      29.91R FOG

$$
NMZ407-409-411-412-311500-
SOUTHERN DESERTS

CITY           SKY/WX    TMP DP  RH WIND       PRES   REMARKS
DEMING         FOG       42  42 100 E10       29.89S VSB 3/4
HOLLOMAN AFB   DRIZZLE   42  42 100 NW6       29.91S
ALAMOGORDO     MIX PCPN  41  41 100 NE3       29.92S
T OR C         CLOUDY    41  40  96 CALM      29.90R

$$
NMZ519>523-311500-
CENTRAL VALLEYS/CENTRAL HIGHLANDS

CITY           SKY/WX    TMP DP  RH WIND       PRES   REMARKS
ALBUQUERQUE    LGT RAIN  33  33 100 NW6       29.93S VSB 3/4 WCI  28
DOUBLE EAGLE   LGT SNOW  30  28  93 N7        29.93S VSB 1   WCI  23
CLINES CORNERS LGT SNOW  28  25  88 E6        29.89F FOG     WCI  22
BELEN          LGT SNOW  32  32 100 CALM      29.93S
SOCORRO        NOT AVBL

$$
NMZ524>526-539-540-311500-
SOUTHCENTRAL MOUNTAINS

CITY           SKY/WX    TMP DP  RH WIND       PRES   REMARKS
RUIDOSO        NOT AVBL

$$
NMZ527>531-311500-
NORTHEAST HIGHLANDS/NORTHEAST PLAINS

CITY           SKY/WX    TMP DP  RH WIND       PRES   REMARKS
LAS VEGAS      FLURRIES  26  24  92 S12       29.92S WCI  16
RATON          FOG       28  28 100 S3        29.91S VSB 1/4
CLAYTON        CLOUDY    32  31  96 S20       29.94R WCI  20

$$
NMZ532>537-311500-
EASTCENTRAL PLAINS

CITY           SKY/WX    TMP DP  RH WIND       PRES   REMARKS
TUCUMCARI      CLOUDY    36  34  92 S3        29.98S
CANNON AFB     LGT RAIN  34  32  93 CALM      29.99F FOG
CLOVIS AIRPORT CLOUDY    34  30  86 SE8       29.99F WCI  27

$$
NMZ028-029-538-311500-
SOUTHEAST PLAINS

CITY           SKY/WX    TMP DP  RH WIND       PRES   REMARKS
ROSWELL        CLOUDY    38  37  97 CALM      29.98S FOG
ARTESIA        FOG       39  39 100 NW3       29.99R VSB 3/4
CARLSBAD       CLOUDY    41  39  93 NW6       29.97R FOG
HOBBS          CLOUDY    39  39 100 SE5       29.99S


$$



USA.gov is the U.S. government's official web portal to all federal, state and local government web resources and services.